Location: Newark
(48.0000°N, 67.0000°E)
Time: 06:05:52
(UTC+00:00)

N. Korean satellite - Pass Details

Date: 01 February 2020
Orbit: 456 x 505 km, 97.2° (Epoch: 27 February)

Event Time Altitude Azimuth Distance (km) Brightness Sun altitude
Rises 13:20:18 0° 202° (SSW) 2,465 10.7 -8.6°
Reaches altitude 10° 13:22:46 10° 221° (SW) 1,602 10.2 -9.0°
Maximum altitude 13:25:15 19° 268° (W) 1,181 9.7 -9.4°
Drops below altitude 10° 13:27:46 10° 314° (NW) 1,625 9.7 -9.8°
Sets 13:30:18 0° 333° (NNW) 2,516 10.4 -10.2°
